Location: Aranbee
(34.0885°N, 118.2342°W)
Time: 23:46:42
(UTC+00:00)

Tiros 1 - Pass Details

Date: 30 November 2020
Orbit: 630 x 663 km, 48.4° (Epoch: 20 January)

Event Time Altitude Azimuth Distance (km) Brightness Sun altitude
Rises 06:08:32 0° 298° (WNW) 2,964 - -66.1°
Reaches altitude 10° 06:11:07 10° 287° (WNW) 2,045 - -66.6°
Maximum altitude 06:15:09 29° 228° (SW) 1,185 - -67.3°
Drops below altitude 10° 06:19:09 10° 168° (SSE) 2,017 - -68.0°
Sets 06:21:41 0° 157° (SSE) 2,917 - -68.5°
